Temperature
22 22 22 24 27 27 28 31 33 33 33 32 31 31 30 29 27 25 25 24 23 23 23 22 22 22 21 21 21 21 21 21 21 21 21 20 20 20 20 20 20 19 19 19 19 19 19 19 19
22 22 23 26 27 27 29 32 33 33 32 31 31 30 29 28 27 26 25 24 23 23 23 22 22 21 21 21 21 21 21 21 21 20 20 20 20 20 20 19 19 19 19 19 19 19 19 19 19
22 23 25 27 27 28 30 33 33 33 32 31 31 30 29 27 26 25 24 23 23 22 22 22 22 21 21 21 21 21 20 20 20 20 20 20 20 20 19 19 19 19 19 19 19 19 19 19 19
22 24 26 27 28 30 31 32 32 32 32 31 31 29 28 26 26 25 24 23 23 22 23 22 22 21 21 21 21 20 20 20 20 20 20 19 19 19 19 19 19 19 19 19 18 18 18 19 19
23 26 27 27 29 31 33 32 31 32 32 31 30 28 26 25 25 25 24 24 23 22 23 22 22 21 21 21 20 20 20 20 20 20 19 19 19 19 19 19 19 19 19 18 18 18 18 18 19
25 27 27 28 30 32 32 32 32 32 32 31 29 26 24 24 24 24 24 24 23 22 22 22 22 21 21 20 20 20 20 20 20 19 19 19 19 19 19 19 19 19 18 18 18 18 18 18 18
26 27 28 29 31 31 32 32 32 32 31 29 28 25 23 24 23 24 24 24 23 22 22 22 22 21 21 20 20 20 20 19 19 19 19 19 19 19 19 18 18 18 18 18 18 18 18 18 18
26 28 28 29 30 31 32 31 31 31 29 27 26 25 22 23 23 24 24 24 22 22 21 21 21 21 20 20 20 20 20 19 19 19 19 19 19 19 19 18 18 18 18 18 18 18 18 18 18
26 27 27 29 31 31 31 31 30 29 27 26 25 23 22 23 24 24 24 23 22 21 21 21 20 20 20 20 20 20 20 19 19 19 19 19 19 19 19 18 18 18 18 18 18 18 18 18 18
27 27 28 31 32 31 31 30 30 28 27 24 23 22 23 23 23 23 23 22 22 21 21 20 20 20 20 19 20 20 19 19 19 19 19 19 18 18 18 18 18 18 18 18 18 18 18 18 18
28 28 30 31 31 31 30 29 28 28 26 24 22 21 22 23 23 22 22 21 21 21 20 20 20 20 19 19 19 19 19 19 19 18 18 18 18 18 18 18 18 18 18 18 18 18 18 18 17
28 29 30 30 30 30 30 29 27 26 24 22 21 21 21 22 22 21 21 20 20 20 20 20 20 20 20 19 19 19 19 19 19 18 18 18 18 18 18 18 18 18 18 18 17 18 18 18 17
28 29 29 29 29 29 29 28 27 25 23 22 22 21 21 21 21 20 20 20 19 19 20 20 20 20 20 19 19 19 19 19 18 18 18 18 18 18 18 18 18 18 18 17 17 17 17 17 17
29 29 29 29 29 29 29 28 27 25 24 23 22 21 21 20 20 20 19 19 18 19 19 19 19 19 19 19 19 19 19 18 18 18 18 18 18 18 17 17 17 17 17 17 17 17 17 17 17
29 29 29 29 29 29 29 28 27 25 25 24 22 21 21 20 19 18 18 18 18 18 18 18 18 19 19 19 19 19 18 18 18 18 18 18 18 18 17 17 17 17 17 17 17 17 17 17 17
28 28 27 29 29 29 28 26 27 25 25 24 23 22 20 20 19 18 18 17 17 17 18 18 18 18 18 18 18 18 18 18 18 18 18 18 17 17 17 17 17 17 17 17 17 17 17 17 17
27 27 27 28 29 29 28 26 26 25 25 25 24 22 21 19 18 17 17 16 16 17 17 17 18 18 18 18 18 18 18 18 18 18 17 17 17 17 17 17 17 17 17 17 16 16 16 16 16
26 27 27 27 28 29 28 25 25 25 25 25 24 22 21 19 18 17 16 16 16 16 16 17 17 17 17 17 17 17 17 17 17 17 17 17 17 17 17 17 16 17 16 16 16 16 16 16 16
27 27 27 28 29 28 28 26 25 26 26 25 24 22 21 19 17 17 16 16 15 15 16 16 16 17 17 17 17 17 16 16 16 16 16 16 16 16 16 16 16 16 16 16 16 16 16 16 16
28 27 27 27 29 28 27 27 27 27 26 25 24 22 20 19 17 16 16 15 15 15 15 15 15 16 16 16 16 16 16 16 16 16 16 16 16 16 16 16 16 16 16 16 15 16 15 15 15
27 27 27 26 27 28 27 26 25 25 25 24 23 22 20 19 17 16 15 14 14 14 14 14 15 15 15 15 15 15 15 15 15 15 15 15 15 16 16 16 16 15 15 15 15 15 15 15 15
26 27 27 27 26 26 26 23 23 22 23 23 22 21 20 18 17 16 15 14 13 13 13 14 14 14 14 15 15 15 15 15 15 15 15 15 15 15 15 15 15 15 15 15 15 15 15 15 15
26 28 27 27 27 26 25 23 21 21 21 22 22 20 19 18 16 15 14 13 13 12 13 13 13 13 13 14 14 14 14 14 14 14 14 14 14 14 14 14 14 14 14 14 14 15 14 14 15
27 27 27 26 26 23 23 23 21 20 20 21 21 20 18 17 16 15 14 13 12 12 12 12 12 13 13 13 13 13 13 13 13 13 13 13 13 13 14 14 14 14 14 14 14 14 14 14 14
27 25 23 22 21 21 22 22 22 22 22 21 20 19 18 17 15 14 14 13 12 11 11 11 11 12 12 12 12 12 12 12 12 12 12 12 13 13 13 13 13 13 13 13 13 13 14 14 13
25 25 22 20 20 20 20 21 21 24 23 22 20 19 17 16 15 14 13 12 11 11 11 11 11 11 11 11 11 11 11 11 11 11 11 12 12 12 12 12 12 13 13 13 13 13 13 13 13
25 25 24 23 22 20 20 21 21 22 22 21 20 18 17 16 15 14 12 12 11 10 10 10 10 10 10 10 10 10 10 10 10 10 11 11 11 11 11 12 12 12 12 12 12 12 12 12 12
27 26 24 23 21 20 20 19 19 19 20 20 19 18 16 15 14 13 12 11 11 10 10 9 10 9 10 9 9 9 9 9 10 10 10 10 10 10 11 11 11 11 11 11 11 11 11 11 12
26 26 25 24 24 22 20 19 19 18 19 19 19 18 16 15 14 13 12 11 10 10 9 9 9 9 9 9 9 9 9 9 9 9 9 9 9 10 10 10 10 11 11 11 11 11 11 11 11
26 25 25 23 23 23 22 19 20 19 19 19 19 17 16 14 13 12 11 11 10 10 9 9 9 9 8 8 8 8 8 8 8 8 9 9 9 9 9 9 9 10 10 10 10 10 10 10 10
Wind_Speed
9 13 11 9 8 10 18 19 12 4 5 6 5 6 9 9 8 8 8 16 23 22 20 19 19 19 19 19 18 17 17 16 16 16 15 15 14 14 13 13 13 12 12 12 11 11 11 11 11
11 13 11 8 10 14 16 17 11 6 7 7 4 6 9 11 12 11 11 20 23 21 19 19 19 19 18 18 18 17 17 16 16 15 15 14 14 13 12 12 11 11 11 11 10 10 10 10 10
12 17 10 9 15 17 15 7 6 7 7 5 4 5 7 9 10 12 15 20 22 20 19 20 19 19 18 18 18 17 17 16 16 15 15 14 13 12 11 11 10 10 10 10 10 10 10 10 9
8 10 8 11 18 20 14 2 4 6 6 7 7 7 8 8 10 14 18 21 21 21 20 19 19 18 18 17 17 17 17 16 16 15 15 14 13 12 11 10 9 9 9 9 9 9 9 9 9
12 8 12 15 19 16 8 2 2 6 7 8 7 7 10 10 14 18 18 19 21 21 19 20 19 18 17 17 16 16 16 16 16 15 14 14 13 12 11 10 9 9 8 8 8 9 8 8 8
9 9 13 16 17 11 6 4 5 8 9 10 10 8 6 8 9 15 17 18 20 21 19 19 19 18 17 16 15 15 16 16 16 15 14 14 13 12 11 10 9 8 8 8 8 8 8 7 7
13 13 16 19 14 9 6 5 8 10 7 4 8 9 5 6 6 11 15 17 20 21 19 16 17 17 17 16 15 15 15 15 15 15 14 14 13 11 10 9 9 9 8 8 8 8 7 7 6
14 14 19 19 13 7 6 5 5 7 3 5 6 8 8 6 5 10 14 16 18 19 17 15 16 16 15 15 15 15 15 14 14 14 14 13 12 11 10 10 9 9 9 8 8 8 8 7 7
16 15 17 17 10 4 5 7 5 3 5 5 9 12 12 9 7 9 12 15 15 16 15 14 14 13 14 15 15 15 14 13 13 12 12 12 12 12 11 11 12 10 9 9 9 9 9 8 8
13 14 18 11 3 2 5 6 6 5 7 9 13 12 14 10 8 10 11 12 12 13 12 11 12 11 10 12 14 12 12 13 12 12 12 11 11 12 12 14 15 12 10 9 10 10 10 10 10
14 18 13 4 3 1 2 3 2 4 6 10 13 11 9 10 9 10 11 11 10 10 8 8 8 7 7 7 8 8 8 11 11 12 13 12 10 9 8 11 12 11 11 10 10 11 11 12 11
14 12 8 4 1 3 3 3 4 4 9 11 12 11 6 9 9 10 9 9 9 9 7 6 6 5 5 6 5 5 5 6 7 9 12 9 5 4 5 7 10 11 10 10 10 9 12 12 12
13 10 6 4 3 6 4 3 6 9 12 14 12 9 10 8 11 10 11 11 9 7 6 5 5 5 5 4 2 4 3 5 6 7 9 8 4 3 3 4 6 9 9 9 8 8 8 7 7
10 9 8 8 9 7 7 6 5 7 10 12 13 12 10 11 11 12 13 10 8 8 7 5 5 5 4 3 1 1 1 4 4 5 8 9 7 4 2 2 3 5 6 6 7 6 4 3 2
10 10 10 11 11 9 10 8 7 10 9 11 12 12 12 11 12 14 13 10 9 8 8 5 3 5 4 2 1 0 0 2 2 3 6 7 7 5 3 3 3 4 7 5 5 5 4 3 3
10 12 13 13 13 12 13 9 9 10 9 11 11 11 11 11 13 14 14 11 8 8 8 6 5 5 3 2 1 1 1 0 0 2 3 4 5 5 4 3 4 6 6 4 3 3 3 3 2
13 15 13 11 13 11 11 6 8 5 7 10 11 11 12 12 13 13 12 10 9 9 8 7 7 6 4 2 1 1 1 1 1 1 1 1 2 3 3 3 4 5 4 3 5 4 3 3 3
12 13 13 13 13 12 11 8 9 10 10 9 9 10 11 12 12 11 11 9 9 9 9 8 8 8 6 3 2 1 1 0 1 1 2 1 2 3 3 3 3 4 4 4 4 4 4 4 4
13 11 11 10 11 11 11 12 14 13 10 10 9 9 11 12 11 10 10 10 10 10 9 9 9 9 7 4 3 2 1 1 0 1 2 1 1 2 2 2 3 4 4 5 5 5 5 4 5
10 7 8 8 8 8 8 12 12 10 9 10 10 10 11 11 11 10 9 9 10 10 9 8 8 8 7 5 4 2 2 1 0 2 3 2 2 2 2 2 3 4 4 5 5 5 4 5 6
7 3 3 6 7 9 9 9 9 7 6 7 8 9 11 9 9 9 9 10 9 9 9 9 9 8 8 7 4 4 2 1 2 2 2 2 2 2 3 2 2 3 3 4 4 5 6 5 6
6 4 6 9 10 8 8 6 6 6 7 8 7 8 9 9 9 9 9 9 9 9 9 10 9 9 9 8 6 6 4 3 3 3 2 2 3 3 3 3 3 3 3 3 4 4 5 6 6
5 7 9 10 10 8 7 7 7 10 10 10 9 9 9 10 9 9 9 8 9 8 9 10 10 10 10 9 8 7 6 5 4 4 4 3 2 4 4 4 3 3 2 3 3 3 3 4 5
7 9 8 8 8 10 8 8 7 10 10 10 10 11 10 10 10 10 9 8 8 9 9 9 10 10 10 10 10 9 8 7 6 6 5 4 3 4 5 4 3 3 2 3 2 2 3 3 4
7 6 3 4 5 6 6 6 5 12 13 14 16 15 13 11 10 9 8 8 8 9 9 9 10 10 10 10 10 9 8 7 8 7 6 5 4 4 6 5 3 3 3 3 2 1 1 2 2
8 7 4 4 5 4 4 2 5 10 12 15 16 16 14 12 10 9 9 8 8 8 8 9 9 9 9 9 9 9 8 6 6 7 6 6 5 5 5 5 4 4 4 3 3 2 2 1 1
7 6 4 5 6 3 3 3 7 9 12 15 17 16 13 12 11 10 9 8 8 8 8 9 8 8 9 9 8 8 8 8 7 7 6 6 5 5 5 5 5 4 4 4 3 3 3 2 2
9 6 4 5 4 4 2 1 2 6 8 10 14 14 13 12 11 10 9 8 8 8 8 8 8 8 8 8 7 7 7 7 7 7 8 7 7 6 6 6 6 6 6 6 5 4 3 3 2
7 6 6 6 6 5 2 2 2 5 8 11 12 14 13 13 12 10 9 8 8 8 8 7 8 8 8 8 7 7 7 7 7 7 7 7 7 7 7 7 6 7 7 6 5 4 4 4 3
7 7 6 6 8 7 6 3 4 5 4 8 13 14 13 13 12 10 9 8 8 8 8 7 7 8 7 7 7 7 7 7 7 7 7 6 7 7 7 7 7 7 7 6 6 6 6 5 4
Wind_Direction
249 252 250 252 245 240 248 251 244 168 137 101 70 76 78 71 86 104 125 119 119 124 131 133 134 138 141 143 143 141 140 138 137 136 133 130 127 124 120 118 116 116 118 118 116 114 113 114 113
250 238 238 245 246 242 242 239 223 168 114 102 114 110 97 88 100 115 121 120 123 128 137 135 136 138 142 145 145 145 145 144 143 141 139 137 134 131 127 125 123 121 120 121 121 120 121 123 123
253 251 238 238 239 250 260 245 167 147 119 144 152 114 100 101 107 123 126 127 126 131 130 130 137 139 143 146 148 149 150 149 148 147 146 144 142 138 135 134 132 128 126 127 128 127 129 131 132
231 230 233 244 245 243 253 267 127 168 167 182 162 117 104 101 114 123 132 133 131 129 128 132 135 138 142 146 150 152 153 153 152 151 151 149 147 145 143 142 140 136 134 134 136 136 137 140 141
237 232 230 246 251 253 240 167 175 223 195 182 154 118 96 81 112 130 135 135 131 127 129 133 133 135 139 145 150 153 154 155 154 154 153 153 151 150 150 149 147 145 144 143 144 144 145 149 151
222 232 238 246 247 240 236 207 213 233 211 182 143 122 87 91 117 132 133 131 127 127 129 132 133 135 137 141 146 150 153 155 155 155 156 156 156 155 155 156 155 155 156 154 152 151 154 158 163
240 246 251 254 249 223 204 210 224 228 212 154 140 130 124 108 131 130 130 126 126 128 132 140 140 138 138 139 142 144 147 152 155 155 156 157 158 158 160 160 161 164 163 161 161 161 167 168 174
243 262 267 265 258 228 174 205 232 238 156 105 117 129 135 148 160 137 131 126 125 130 136 145 149 147 148 146 146 145 146 148 152 156 159 161 162 167 169 171 171 172 173 172 173 175 178 178 186
241 257 264 262 248 203 163 195 205 115 103 92 96 113 140 161 170 150 134 128 132 131 137 148 150 154 160 156 151 150 150 152 155 161 166 169 178 181 182 191 174 179 182 183 183 183 186 188 199
231 246 255 266 262 161 165 204 196 171 134 112 111 123 142 157 168 147 130 125 129 126 135 140 146 154 158 150 149 161 166 164 176 176 176 190 199 194 192 182 169 179 189 193 194 194 196 206 207
230 246 266 303 356 351 167 154 96 174 139 120 124 129 143 154 146 131 124 120 117 117 112 120 131 133 138 135 153 167 173 166 189 188 182 201 211 201 187 164 168 179 190 200 197 201 212 216 219
238 249 268 272 317 276 257 139 114 89 83 88 111 128 159 128 106 97 97 103 92 86 95 107 113 118 123 130 158 165 166 162 183 185 185 199 214 213 186 170 178 186 196 204 194 207 221 225 228
236 245 249 245 229 236 233 171 126 113 113 110 105 115 113 99 87 84 83 78 81 80 74 82 85 85 86 97 154 162 153 161 181 174 185 198 200 228 212 189 187 199 200 198 199 208 216 224 233
229 233 228 226 218 216 217 178 149 135 128 116 108 99 98 86 76 70 68 68 72 75 62 53 69 77 72 85 106 113 153 147 173 174 190 200 204 203 199 213 206 224 224 206 210 219 211 211 237
233 228 217 218 211 204 215 199 174 154 148 127 111 105 94 84 78 71 64 54 51 61 64 49 82 81 72 60 16 76 65 129 157 162 187 201 212 200 202 219 218 240 245 224 222 233 226 206 203
230 225 217 208 204 201 216 204 160 166 163 132 122 113 95 84 76 73 69 60 42 41 52 40 50 67 63 53 15 348 350 43 141 155 172 199 221 205 201 217 218 230 244 234 226 230 230 211 178
221 222 215 198 199 198 213 188 151 193 179 140 131 118 106 90 74 71 74 69 58 50 49 41 33 44 33 27 21 330 12 8 12 46 96 166 233 228 218 222 220 220 230 228 227 213 210 199 170
223 218 205 196 196 205 204 168 154 199 201 148 136 120 109 96 82 75 73 68 61 56 48 39 36 33 21 27 24 350 358 357 78 89 92 134 223 237 241 237 230 225 228 228 223 210 205 195 171
253 226 208 186 181 207 199 167 178 190 171 151 149 130 114 101 93 81 73 65 60 52 45 36 32 29 21 22 8 350 350 351 359 86 90 81 269 253 246 257 244 230 227 225 225 218 201 194 165
261 220 176 171 176 213 200 180 174 174 167 155 150 132 118 109 96 82 73 63 56 48 40 38 32 28 22 14 349 331 334 331 46 65 58 44 19 342 281 270 255 237 234 224 218 214 209 203 186
261 265 183 178 198 218 209 195 167 163 145 135 132 124 120 113 100 88 71 57 52 47 40 35 30 28 21 12 4 354 359 12 45 56 61 36 18 10 347 317 285 266 245 233 219 212 215 211 207
248 242 232 209 214 218 213 217 181 168 171 169 151 132 121 112 103 91 79 65 54 48 50 43 36 30 23 22 21 14 13 15 18 15 31 40 32 22 2 338 323 300 283 260 238 218 224 210 212
263 251 240 239 236 241 222 222 192 177 193 184 158 140 126 115 106 94 81 71 59 51 54 49 41 34 27 25 25 22 25 23 20 18 19 23 31 29 17 0 339 309 298 294 266 242 225 218 220
257 252 256 268 259 245 251 248 181 180 192 176 160 144 134 121 111 101 93 81 67 55 53 50 46 39 32 31 29 26 26 25 25 22 16 14 22 22 11 9 355 337 329 315 290 254 234 230 229
261 266 268 272 258 257 274 259 166 170 167 165 161 149 140 128 119 112 99 83 69 57 51 50 50 42 33 32 31 28 26 29 32 22 19 15 17 15 8 9 0 346 340 335 325 297 259 248 245
251 248 253 269 264 253 255 229 140 137 137 143 143 136 132 126 120 110 94 82 74 67 57 53 51 46 38 35 33 33 30 32 33 28 22 21 18 14 7 7 10 8 5 2 356 350 345 328 281
256 266 260 265 279 276 233 152 114 103 119 130 132 133 133 127 120 111 100 88 76 69 62 58 56 51 44 38 35 38 35 34 33 30 29 25 18 15 15 17 15 18 18 15 18 32 27 22 25
250 270 277 277 287 271 251 241 144 148 147 146 142 140 135 129 121 113 106 95 84 78 73 66 64 60 54 48 40 43 40 38 37 38 34 29 20 15 20 25 21 25 28 27 31 37 36 41 40
259 261 277 288 298 308 290 156 158 191 183 165 151 143 139 134 126 120 111 103 96 84 74 65 62 61 56 50 46 46 43 40 42 42 37 31 24 22 26 26 30 35 33 31 34 38 39 45 51
272 279 281 288 301 309 313 111 125 162 170 157 144 135 131 128 126 121 113 106 95 84 76 71 65 62 59 55 50 49 47 43 43 41 36 32 30 27 29 33 39 44 41 36 37 39 41 44 56
Height
1497 1499 1501 1502 1498 1491 1484 1465 1453 1453 1456 1461 1466 1469 1473 1478 1485 1498 1497 1496 1497 1500 1504 1508 1511 1515 1518 1521 1524 1527 1530 1532 1535 1537 1539 1541 1543 1545 1547 1549 1551 1553 1555 1556 1558 1559 1561 1562 1563
1496 1500 1502 1499 1493 1492 1476 1457 1452 1454 1458 1463 1468 1471 1475 1480 1485 1491 1495 1497 1499 1501 1505 1508 1512 1515 1519 1522 1526 1529 1531 1534 1536 1539 1541 1543 1545 1547 1549 1551 1553 1555 1556 1558 1559 1561 1562 1563 1564
1496 1498 1500 1492 1488 1482 1466 1450 1450 1455 1461 1466 1469 1472 1477 1483 1487 1491 1495 1497 1499 1502 1506 1509 1513 1516 1520 1523 1526 1530 1533 1535 1538 1540 1542 1545 1547 1549 1551 1552 1554 1556 1558 1559 1561 1562 1563 1564 1565
1497 1498 1495 1487 1480 1465 1457 1452 1454 1457 1462 1466 1469 1475 1480 1486 1488 1491 1495 1497 1500 1503 1506 1510 1513 1517 1520 1524 1527 1530 1533 1536 1539 1541 1544 1546 1548 1550 1552 1554 1555 1557 1559 1560 1561 1563 1564 1565 1566
1497 1494 1490 1483 1471 1456 1451 1454 1459 1459 1462 1465 1470 1477 1483 1489 1490 1493 1496 1498 1501 1504 1506 1510 1514 1517 1520 1524 1527 1530 1534 1537 1539 1542 1544 1547 1549 1551 1553 1554 1556 1558 1559 1561 1562 1563 1564 1565 1566
1494 1488 1487 1480 1465 1454 1452 1455 1460 1461 1461 1465 1471 1480 1488 1489 1492 1494 1497 1500 1502 1504 1507 1510 1514 1517 1520 1524 1527 1531 1534 1537 1539 1542 1545 1547 1549 1551 1553 1555 1557 1558 1560 1561 1562 1563 1565 1566 1567
1490 1483 1478 1468 1458 1454 1453 1457 1460 1461 1461 1466 1471 1481 1489 1492 1494 1495 1498 1501 1503 1505 1507 1511 1514 1517 1520 1524 1527 1530 1534 1537 1539 1542 1545 1547 1549 1551 1553 1555 1556 1558 1559 1561 1562 1563 1564 1566 1567
1487 1482 1475 1464 1457 1454 1454 1459 1461 1462 1465 1470 1473 1481 1489 1495 1495 1497 1499 1502 1504 1506 1508 1511 1514 1518 1521 1524 1527 1530 1533 1536 1539 1542 1544 1547 1549 1551 1553 1554 1556 1557 1559 1560 1562 1563 1564 1565 1567
1485 1484 1477 1462 1455 1453 1455 1460 1463 1467 1468 1472 1476 1482 1489 1494 1497 1498 1500 1502 1505 1507 1510 1513 1515 1518 1521 1524 1527 1530 1533 1535 1538 1541 1544 1546 1548 1550 1552 1554 1555 1557 1558 1560 1561 1562 1564 1565 1566
1481 1480 1469 1454 1450 1453 1457 1460 1463 1468 1472 1478 1483 1488 1490 1491 1496 1499 1500 1500 1504 1507 1511 1514 1516 1519 1522 1525 1527 1531 1533 1535 1537 1540 1543 1545 1548 1550 1551 1553 1555 1556 1558 1559 1560 1562 1563 1564 1565
1475 1473 1462 1457 1456 1458 1460 1463 1467 1468 1474 1482 1486 1490 1491 1494 1496 1499 1499 1501 1504 1507 1510 1512 1516 1518 1522 1524 1526 1530 1533 1534 1537 1539 1541 1544 1547 1549 1551 1552 1554 1555 1556 1558 1559 1561 1562 1563 1565
1471 1467 1464 1462 1463 1464 1463 1466 1472 1473 1481 1486 1489 1490 1492 1495 1496 1498 1500 1501 1504 1507 1511 1514 1518 1520 1522 1524 1527 1529 1532 1534 1536 1538 1541 1543 1546 1548 1550 1551 1552 1554 1555 1556 1557 1559 1561 1562 1564
1469 1467 1466 1466 1467 1468 1467 1468 1472 1478 1483 1485 1487 1488 1493 1495 1494 1498 1502 1500 1505 1507 1510 1513 1517 1520 1522 1523 1526 1528 1531 1532 1534 1537 1539 1541 1544 1546 1548 1550 1551 1552 1553 1554 1555 1557 1559 1561 1563
1467 1466 1467 1468 1468 1468 1468 1470 1474 1480 1483 1486 1489 1489 1493 1495 1498 1501 1503 1504 1507 1509 1511 1513 1516 1520 1522 1524 1525 1527 1529 1531 1533 1535 1536 1538 1541 1544 1546 1548 1549 1551 1552 1553 1554 1556 1558 1559 1561
1466 1467 1467 1467 1467 1468 1469 1471 1475 1480 1483 1486 1491 1494 1496 1499 1500 1501 1505 1507 1507 1510 1511 1514 1517 1520 1522 1523 1524 1526 1528 1530 1532 1533 1534 1536 1539 1541 1543 1544 1546 1548 1550 1551 1552 1554 1555 1557 1558
1467 1469 1471 1465 1464 1466 1471 1478 1475 1480 1482 1485 1491 1495 1497 1499 1501 1503 1505 1506 1508 1510 1511 1515 1518 1519 1520 1521 1522 1523 1525 1527 1529 1531 1532 1534 1536 1538 1540 1541 1543 1544 1547 1548 1549 1550 1552 1553 1555
1470 1472 1471 1466 1462 1463 1468 1476 1476 1479 1482 1485 1490 1494 1498 1501 1503 1505 1506 1507 1508 1510 1512 1514 1515 1517 1518 1519 1520 1522 1523 1525 1527 1529 1530 1532 1533 1535 1536 1538 1540 1541 1543 1544 1546 1547 1548 1550 1551
1472 1466 1468 1467 1462 1462 1468 1476 1477 1481 1482 1485 1489 1493 1497 1501 1505 1507 1509 1510 1509 1510 1512 1513 1514 1514 1516 1517 1519 1520 1522 1523 1525 1526 1528 1529 1530 1532 1533 1534 1536 1537 1538 1539 1541 1543 1544 1545 1547
1461 1462 1465 1462 1458 1462 1467 1473 1477 1478 1480 1484 1488 1493 1498 1503 1507 1509 1511 1512 1511 1511 1511 1512 1513 1513 1514 1516 1517 1519 1520 1522 1523 1524 1525 1526 1527 1529 1530 1531 1532 1533 1534 1535 1536 1538 1539 1541 1543
1457 1460 1463 1461 1458 1462 1466 1470 1472 1475 1480 1484 1488 1493 1499 1504 1507 1510 1512 1512 1512 1512 1512 1512 1513 1513 1514 1515 1516 1517 1519 1520 1521 1522 1522 1523 1524 1525 1526 1527 1528 1529 1530 1531 1532 1533 1534 1536 1538
1459 1462 1464 1466 1462 1462 1467 1474 1475 1478 1482 1487 1491 1495 1500 1504 1508 1511 1513 1514 1514 1514 1513 1513 1513 1513 1514 1514 1515 1516 1517 1518 1519 1520 1520 1521 1521 1522 1523 1523 1524 1525 1526 1526 1527 1529 1530 1531 1533
1466 1460 1461 1463 1468 1471 1471 1489 1486 1485 1488 1492 1495 1499 1502 1506 1509 1512 1513 1515 1515 1515 1514 1514 1513 1513 1513 1514 1514 1515 1515 1516 1517 1518 1518 1518 1519 1519 1519 1520 1520 1521 1522 1522 1523 1524 1525 1527 1528
1464 1458 1459 1460 1464 1471 1474 1486 1492 1488 1493 1494 1496 1500 1504 1508 1510 1513 1515 1516 1516 1516 1515 1514 1514 1514 1514 1513 1513 1514 1514 1515 1515 1515 1516 1516 1517 1517 1517 1517 1517 1517 1518 1518 1518 1519 1521 1522 1524
1460 1460 1461 1462 1468 1485 1481 1485 1494 1490 1491 1493 1496 1501 1505 1509 1511 1513 1515 1516 1517 1517 1516 1515 1515 1514 1514 1513 1513 1513 1513 1513 1514 1514 1514 1514 1514 1514 1514 1514 1514 1514 1514 1514 1515 1515 1517 1518 1519
1462 1471 1488 1495 1497 1495 1484 1484 1487 1480 1480 1486 1493 1499 1504 1509 1512 1514 1516 1517 1517 1517 1517 1516 1515 1515 1515 1514 1514 1513 1513 1513 1513 1513 1512 1512 1512 1512 1512 1511 1511 1511 1511 1512 1512 1512 1513 1514 1515
1467 1473 1493 1507 1506 1501 1493 1491 1483 1474 1478 1485 1492 1499 1505 1509 1512 1515 1517 1518 1519 1518 1518 1517 1517 1516 1516 1515 1515 1514 1513 1513 1513 1512 1512 1512 1511 1511 1510 1509 1509 1509 1509 1509 1509 1510 1510 1511 1512
1468 1469 1472 1483 1488 1497 1495 1487 1483 1479 1482 1488 1493 1499 1504 1508 1512 1515 1517 1519 1520 1520 1519 1519 1518 1518 1517 1517 1516 1515 1514 1513 1513 1512 1512 1511 1511 1510 1509 1509 1508 1508 1508 1508 1508 1508 1508 1509 1509
1461 1464 1471 1480 1493 1501 1499 1498 1496 1491 1489 1491 1493 1498 1504 1508 1512 1516 1518 1520 1521 1521 1521 1520 1520 1519 1519 1518 1517 1516 1515 1514 1514 1513 1512 1512 1511 1510 1510 1509 1508 1508 1508 1508 1508 1507 1507 1507 1507
1463 1465 1467 1471 1474 1488 1500 1505 1490 1489 1487 1489 1494 1498 1503 1508 1513 1516 1519 1521 1522 1522 1522 1522 1522 1521 1520 1520 1519 1518 1517 1516 1516 1515 1514 1513 1512 1511 1511 1510 1509 1508 1508 1508 1508 1507 1507 1507 1507
1461 1464 1468 1479 1478 1474 1483 1499 1485 1486 1486 1488 1494 1499 1504 1509 1513 1517 1519 1521 1523 1523 1523 1523 1523 1523 1522 1521 1521 1520 1519 1518 1518 1517 1516 1515 1514 1513 1512 1512 1511 1510 1510 1509 1509 1508 1507 1507 1507